Regional Weather Roundup
Issued by NWS Boston, MA

Current Version | Previous Version | Text Only | Print | Product List | Glossary Off
Versions: 1 2 3 4 5 6 7 8 9 10 11 12 13 14 15 16 17 18 19 20 21 22 23 24 25 26 27 28 29 30 31 32 33 34 35 36 37 38 39 40 41 42 43 44 45 46 47 48 49 50
412 ASUS41 KBOX 170610 RWRBOX REGIONAL WEATHER ROUNDUP NATIONAL WEATHER SERVICE TAUNTON MA 200 AM EDT THU AUG 17 2017 NOTE: "FAIR" INDICATES FEW OR NO CLOUDS BELOW 12,000 FEET WITH NO SIGNIFICANT WEATHER AND/OR OBSTRUCTIONS TO VISIBILITY. MAZALL-170700- EASTERN MASSACHUSETTS CITY SKY/WX TMP DP RH WIND PRES REMARKS BOSTON CLOUDY 68 46 45 N9 30.03R 6HR MIN TEMP: 68; 6HR MAX TEMP: 77; BEVERLY CLEAR 60 49 66 NW3 30.02R LAWRENCE CLEAR 62 49 62 CALM 30.05R BEDFORD CLEAR 58 48 69 NW5 30.02R BLUE HILL N/A 65 44 46 N10 30.02S NORWOOD PTCLDY 61 56 83 N3 30.02S MARSHFIELD PTCLDY 68 52 56 VRB5 30.01S PLYMOUTH MOCLDY 63 52 67 CALM 30.02S TAUNTON MOCLDY 56 54 93 CALM 30.01S NEW BEDFORD PTCLDY 62 57 83 CALM 30.01R $$ MAZALL-170700- CAPE COD AND THE ISLANDS CITY SKY/WX TMP DP RH WIND PRES REMARKS FALMOUTH MOCLDY 63 54 72 N6 30.02R HYANNIS CLEAR 67 57 70 N6 29.99S CHATHAM CLEAR 67 57 70 NW3 30.01S PROVINCETOWN CLEAR 66 57 72 N6 30.02S NANTUCKET MOCLDY 67 66 97 N3 30.00R MARTHAS VNYRD CLEAR 63 62 97 N6 30.00R $$ MAZALL-170700- CENTRAL AND WESTERN MASSACHUSETTS CITY SKY/WX TMP DP RH WIND PRES REMARKS WORCESTER CLEAR 60 48 64 CALM 30.06R 6HR MIN TEMP: 60; 6HR MAX TEMP: 72; FITCHBURG CLEAR 59 55 87 NW3 30.06R ORANGE CLEAR 55 55 100 CALM 30.06S SPRINGFIELD CLEAR 57 54 88 CALM 30.03R WESTFIELD CLEAR 58 58 100 CALM 30.05R NORTH ADAMS CLEAR 54 52 93 CALM 30.08R PITTSFIELD CLEAR 55 51 86 CALM 30.07R $$ RIZALL-170700- RHODE ISLAND CITY SKY/WX TMP DP RH WIND PRES REMARKS PROVIDENCE CLEAR 67 53 61 N8 30.03S 6HR MIN TEMP: 66; 6HR MAX TEMP: 78; NEWPORT CLEAR 66 55 67 N7 30.01S BLOCK ISLAND PTCLDY 68 63 84 N8 30.01S WESTERLY PTCLDY 66 61 84 CALM 30.02S $$ CTZALL-170700- CONNECTICUT CITY SKY/WX TMP DP RH WIND PRES REMARKS BRADLEY INTL PTCLDY 63 58 83 N3 30.04R 6HR MIN TEMP: 63; 6HR MAX TEMP: 75; HARTFORD CLEAR 67 58 72 N5 30.03R BRIDGEPORT MOCLDY 73 58 59 N5 30.03R DANBURY MOCLDY 64 61 90 CALM 30.06S GROTON CLOUDY 68 61 78 N7 30.01R NEW HAVEN PTCLDY 71 56 58 N6 30.02S CHESTER NOT AVBL MERIDEN MOCLDY 65 60 84 CALM 30.03R WILLIMANTIC CLEAR 61 60 97 CALM 30.04R OXFORD MOCLDY 64 57 78 N5 30.06S $$ MEZ002-015-021-024-NHZ003-005-008-011-012-014-VTZ005-008-170700- NORTHERN NEW ENGLAND CITY SKY/WX TMP DP RH WIND PRES REMARKS PORTLAND ME CLEAR 56 46 69 W3 30.01R 6HR MIN TEMP: 53; 6HR MAX TEMP: 69; BANGOR ME CLEAR 56 47 71 W6 29.96S CONCORD NH CLEAR 50 46 86 CALM 30.05R MANCHESTER NH CLEAR 61 48 62 NW7 30.02R NASHUA NH CLEAR 57 53 86 W5 30.04S PORTSMOUTH NH CLEAR 58 47 67 W3 30.01R JAFFREY NH CLEAR 54 52 93 CALM 30.07R KEENE NH N/A N/A N/A N/A MISG N/A BURLINGTON VT CLEAR 54 52 93 E3 30.05F MT. WASHINGTON FOG 36 36 100 NW51G62 N/A VSB 0 WCI 19 $$ NYZ052-076-170700- EASTERN NEW YORK CITY SKY/WX TMP DP RH WIND PRES REMARKS ALBANY CLEAR 60 54 80 CALM 30.07R 6HR MIN TEMP: 58; 6HR MAX TEMP: 74; NEW YORK CITY PTCLDY 75 61 61 NE7 30.02R 6HR MIN TEMP: 75; 6HR MAX TEMP: 82; $$ ANZALL-170700- MARINE OBSERVATIONS STATION/POSITION TIME TEMP WIND PRES VSBY WAVE AIR SEA DIR/SP/G HT/PER (UTC) (F) (DEG/KT/KT) (MB) (MI) (FT/S) BOSTON BUOY 0550 68 68 340/ 12/ 14 1016.0R 2/14 BUZZARDS BAY 0500 69 10/ 12/ 13 1016.0S NANTUCKET SOUND 0450 68 69 40/ 4/ 4 1015.9 1 MASS BAY-STELLWA 0504 67 67 330/ 8/ 10 1015.6S 2/11 ISLE OF SHOALS 0500 63 310/ 5/ 6 1016.0R S OF BLOCK IS 0543 70 N/A 4/10 $$ ......................KEY......................... SKY/WX - SKY CONDITION/PRESENT WEATHER TMP - TEMPERATURE IN FAHRENHEIT DWPT - DEWPOINT IN FAHRENHEIT RH - RELATIVE HUMIDITY IN PERCENT WIND - DIRECTION AND SPEED IN MPH PRES - MEAN SEA LEVEL PRESSURE IN INCHES OF HG WCI - WIND CHILL INDEX VSB - VISIBILITY IN MILES HX - HEAT INDEX TC - TEMPERATURE IN CELSIUS VRB - VARIABLE WIND DIRECTION N/A - NOT AVAILABLE

USA.gov is the U.S. government's official web portal to all federal, state and local government web resources and services.